RH
24 23 23 24 24 23 23 23 24 24 25 26 28 29 31 32 32 32 32 32 32 32 31 31 31 32 31 30 30 29 29 28 28 27 25 23 21 21 21 21 20 20 20 20 21 22 22 23 24 23 23 22 21 22 22 22 24 26 30 31 30 33 31 30 29 26 25 25 25 26 26 28 30 30 30 31 34 37 37 38 40 39 40 43 45 45 48 49
25 23 23 23 22 22 23 24 25 26 27 28 28 29 29 30 30 30 30 30 29 29 29 29 29 30 30 29 30 31 30 30 29 29 27 27 26 26 27 26 26 25 24 24 23 23 23 23 23 22 21 20 19 19 20 20 21 25 31 29 27 31 28 25 26 23 21 22 23 26 25 26 28 28 27 31 37 39 39 39 39 41 43 43 45 47 48 49
25 24 25 25 25 27 28 30 30 30 30 30 31 30 30 29 29 29 28 28 27 26 25 25 25 25 25 25 26 27 27 27 27 27 26 25 25 24 24 23 23 22 22 21 20 20 20 20 20 19 19 17 17 17 18 19 21 24 27 27 27 29 27 24 23 21 20 21 24 25 25 25 26 25 26 30 35 36 38 38 38 41 43 44 46 47 47 47
25 26 27 29 31 32 33 34 34 34 33 32 32 31 30 29 29 28 27 26 24 22 20 20 20 20 21 21 23 24 24 25 24 23 22 21 21 20 19 18 18 18 18 18 17 18 18 18 18 18 17 16 15 16 17 18 20 24 26 27 28 29 27 24 23 21 21 22 25 26 26 27 26 26 27 29 31 31 33 37 36 39 42 43 45 45 45 44
29 30 32 34 35 36 36 36 35 34 33 32 32 30 29 28 27 25 23 21 19 18 16 15 15 15 15 16 19 21 22 23 22 20 19 19 18 17 16 16 16 16 15 15 15 16 17 17 17 17 17 16 15 15 16 18 19 22 24 24 26 27 26 24 22 21 23 24 24 26 28 28 28 29 28 28 31 30 32 35 35 36 39 40 42 43 43 44
33 35 37 38 38 38 37 35 34 33 32 31 30 28 27 25 22 20 18 16 15 14 13 13 12 12 11 12 14 17 20 22 21 20 20 18 17 17 17 16 16 16 16 16 16 17 18 18 17 17 17 16 17 16 16 17 18 21 22 21 22 23 23 22 20 21 23 24 24 26 28 28 29 31 30 29 32 33 33 34 33 35 37 39 41 43 44 46
37 39 40 40 39 37 35 34 34 32 31 29 27 25 22 20 17 16 15 14 13 12 11 11 11 11 12 14 16 18 20 20 21 21 20 19 18 18 18 18 18 18 18 18 18 18 19 19 18 18 18 17 17 16 16 17 16 18 20 20 20 20 21 20 20 22 23 25 26 27 28 29 29 30 31 30 33 33 33 33 33 35 37 40 43 44 47 48
40 41 40 39 37 35 34 33 32 30 28 25 23 21 18 17 14 13 12 12 12 11 12 14 15 16 18 20 22 23 22 21 21 20 20 19 19 19 19 19 18 18 18 18 18 18 18 18 19 18 18 18 17 17 17 17 18 19 20 20 20 20 22 22 22 23 25 27 28 28 30 31 30 30 31 32 33 34 35 35 35 37 40 43 45 46 49 51
40 41 39 37 35 34 33 31 29 27 25 24 21 18 15 13 12 11 11 12 14 16 18 20 21 22 23 24 24 24 23 21 20 20 19 19 19 19 18 19 20 19 19 19 19 19 19 19 19 19 18 18 18 18 19 19 21 22 22 22 22 22 24 24 25 26 27 29 29 30 33 33 31 31 33 33 34 36 37 37 37 38 41 44 45 47 49 50
39 39 37 35 33 32 31 29 27 25 23 21 18 15 13 12 12 12 14 16 19 21 22 22 23 23 24 24 24 24 22 20 20 19 19 18 18 18 18 18 19 19 18 19 20 21 21 21 22 21 20 20 20 21 21 21 22 23 23 24 23 23 24 24 26 28 28 29 28 31 34 32 29 33 36 35 35 37 38 38 38 39 41 43 45 46 48 49
38 36 34 34 33 31 29 27 24 22 20 17 14 13 13 13 13 14 17 19 20 21 22 22 22 23 24 23 23 23 21 20 20 19 18 18 17 17 17 17 17 18 17 17 18 19 20 21 21 20 19 21 21 21 22 22 21 21 22 22 23 22 21 21 24 25 25 25 25 28 31 31 30 35 38 35 35 38 38 39 40 41 42 43 45 46 48 49
35 35 35 34 32 28 26 23 20 18 14 13 13 13 13 12 14 17 19 20 21 21 22 23 23 23 24 23 22 21 20 20 19 19 18 17 16 16 15 15 16 16 16 16 15 15 16 17 17 17 17 18 19 19 19 20 20 19 20 19 23 26 22 20 22 21 21 24 24 24 27 32 34 36 36 34 36 40 41 41 42 44 45 46 47 47 48 49
36 36 34 31 27 24 20 18 16 13 12 13 13 12 12 14 16 18 19 20 21 21 22 23 23 23 23 22 21 20 20 19 18 18 17 15 15 15 14 14 14 14 14 14 14 14 14 14 14 14 15 15 16 16 17 17 16 17 18 18 22 25 22 18 18 19 20 23 23 23 27 33 37 35 34 35 38 41 42 44 45 46 47 48 48 48 49 49
35 32 29 25 22 19 16 14 12 12 13 14 13 13 15 17 18 19 19 20 21 21 23 23 22 22 22 21 19 18 18 16 15 14 13 12 12 13 13 12 12 12 13 12 12 12 11 12 12 13 14 15 14 14 17 20 19 19 17 23 25 21 23 23 21 22 22 24 25 24 29 36 37 35 34 36 37 41 42 44 46 48 48 49 50 50 50 51
30 27 24 22 18 16 14 13 13 15 16 15 15 16 17 18 18 19 19 20 21 22 22 22 21 20 20 18 16 16 14 12 12 12 11 10 11 12 11 11 11 11 11 11 10 10 10 11 11 13 13 14 15 17 22 24 27 26 19 27 32 25 29 30 26 27 25 26 26 25 32 37 37 36 35 35 36 39 40 42 44 46 48 49 49 50 51 52
27 26 23 21 19 17 15 15 17 18 18 17 17 17 17 17 17 18 19 20 21 21 21 21 18 19 19 14 12 13 12 11 12 12 12 11 10 11 10 10 10 10 10 10 10 10 11 12 13 14 13 16 21 23 25 26 30 33 25 26 30 27 31 29 26 30 27 25 28 28 34 37 35 34 33 34 35 36 38 39 41 42 44 46 48 49 50 50
28 26 24 22 19 17 16 17 19 19 19 18 17 17 17 16 16 16 18 20 20 19 17 17 15 17 19 14 12 12 11 12 12 11 11 10 10 11 10 10 10 10 11 11 12 12 12 13 14 15 17 22 26 24 24 27 30 34 31 28 30 28 28 26 26 28 27 28 31 32 35 35 34 32 32 32 33 34 36 38 40 43 45 48 49 50 49 47
27 25 23 20 17 16 17 19 20 20 19 17 16 16 15 15 16 16 17 18 18 17 15 14 13 16 17 14 13 12 11 11 11 10 11 10 10 11 10 11 10 11 13 12 12 13 13 14 16 19 22 24 26 25 24 25 27 28 29 28 29 29 27 27 27 26 28 31 34 34 35 36 34 32 31 32 33 35 37 40 42 46 48 49 50 49 48 48
25 23 19 16 16 17 19 20 19 18 16 15 14 15 14 14 15 14 15 16 16 16 16 15 14 14 14 13 13 12 10 10 10 9 10 10 11 11 11 11 11 11 13 13 14 15 15 17 21 23 24 23 24 25 22 22 25 25 26 28 27 27 29 30 29 29 32 34 37 38 37 37 35 33 33 33 35 37 39 42 44 47 47 47 47 47 47 48
21 18 15 15 17 18 18 17 16 15 14 13 13 15 15 14 15 15 15 16 16 16 16 15 14 13 13 12 12 11 10 9 9 9 10 10 10 11 10 10 11 12 15 17 17 16 18 23 25 22 22 24 24 26 26 27 29 27 26 29 28 29 31 32 33 35 36 39 40 40 39 38 37 37 36 36 37 39 41 43 44 45 44 44 44 46 47 49
17 15 14 16 17 16 15 14 14 13 13 13 13 15 16 15 16 17 16 18 17 15 15 15 14 12 12 12 12 11 11 10 9 9 10 10 10 11 11 12 14 15 17 20 19 17 19 23 24 21 22 24 26 29 30 28 29 28 26 27 28 29 31 32 36 38 37 40 41 39 40 41 39 39 38 38 39 40 41 43 44 44 45 46 48 50 51 53
15 15 16 16 15 15 14 14 14 13 13 12 13 14 15 14 15 15 16 18 17 15 14 14 12 11 11 12 12 12 12 11 10 9 10 10 11 12 13 15 18 17 18 22 22 20 20 20 22 24 25 26 28 30 28 25 26 27 26 27 27 28 30 32 36 37 37 40 40 38 40 41 40 39 38 38 39 40 41 43 45 47 49 51 53 54 55 56
16 18 18 15 15 14 14 14 14 13 13 13 13 13 13 13 14 14 16 18 17 14 14 13 12 12 12 12 13 13 12 12 12 10 10 11 11 13 14 16 20 20 19 21 22 21 19 19 23 26 27 27 27 27 26 24 24 25 27 27 26 28 29 28 31 35 35 36 37 37 40 41 41 41 40 40 41 42 44 46 48 50 51 52 54 56 58 60
19 19 17 15 14 14 14 15 15 14 13 13 13 12 13 14 14 14 16 17 16 14 13 13 12 12 13 12 12 13 13 12 12 10 10 11 12 13 14 16 21 22 21 21 21 21 19 20 24 27 28 28 25 25 25 23 22 25 29 28 26 28 27 27 30 33 32 33 34 36 41 43 42 43 43 43 45 46 48 50 52 52 52 55 58 62 65 67
20 19 18 16 15 14 15 16 16 14 13 13 12 12 14 15 15 14 15 16 15 14 14 13 12 12 12 12 12 12 13 12 12 11 10 11 12 14 15 15 19 22 22 23 23 21 19 21 24 25 26 27 24 24 23 22 22 24 27 26 25 26 26 28 30 30 30 33 34 37 43 46 46 47 49 49 50 52 53 55 56 57 60 63 66 68 70 71
20 19 18 17 15 15 15 16 16 14 13 13 11 12 14 15 15 14 17 22 18 14 14 13 13 13 11 12 11 11 13 14 12 11 10 12 12 14 17 17 18 19 21 23 22 22 22 24 26 25 25 25 23 22 21 23 24 22 23 25 25 26 27 29 30 30 32 34 35 38 43 47 50 52 54 55 55 55 57 59 60 61 64 65 66 67 68 69
19 19 19 18 16 16 16 16 15 14 13 12 11 12 13 14 14 12 19 25 20 14 14 14 13 13 12 11 11 12 14 15 13 11 11 12 12 13 17 19 18 17 19 22 22 23 25 28 28 25 24 23 21 21 22 24 23 21 22 25 25 25 27 29 30 33 36 36 39 43 47 51 53 52 54 55 54 55 58 60 59 60 62 64 66 67 67 67
19 19 19 18 16 16 16 16 15 14 13 12 12 11 10 12 12 16 21 19 14 14 15 14 13 12 12 11 12 13 14 14 14 12 11 11 11 12 15 18 18 17 19 22 24 24 25 27 25 23 22 22 21 22 24 24 23 24 25 25 26 28 30 31 32 35 38 39 42 44 49 55 53 48 52 54 53 56 58 58 57 60 65 67 66 65 65 64
19 20 20 17 16 16 16 15 15 14 13 12 11 9 9 9 11 20 23 15 13 16 15 14 14 13 12 12 13 13 13 14 15 13 11 11 11 12 14 15 15 17 18 21 25 24 24 24 23 23 23 23 23 24 26 25 22 24 25 24 27 30 31 33 34 37 40 41 40 38 44 53 51 46 50 54 55 57 57 58 59 61 64 65 63 62 62 62
20 20 19 16 16 16 15 15 15 13 13 11 9 8 9 11 19 23 17 11 15 16 14 13 14 15 15 15 15 15 15 15 15 13 12 11 11 12 14 13 14 18 19 21 24 23 23 23 23 23 22 22 25 25 26 26 23 23 23 23 25 26 29 34 35 36 40 41 40 35 37 48 52 47 49 52 53 54 55 58 59 59 60 60 58 58 58 56
21 20 18 16 16 15 15 15 13 11 10 9 8 10 9 14 26 25 12 12 17 16 16 16 17 19 19 18 16 16 17 17 15 15 15 15 15 14 16 17 18 21 23 24 25 25 24 23 22 22 21 21 24 24 24 26 25 23 22 21 22 23 26 32 32 34 39 38 37 34 33 43 51 48 47 49 50 52 53 55 55 53 54 53 50 48 46 43
21 21 18 16 16 17 15 12 10 9 8 9 10 11 12 14 19 19 15 15 16 15 18 18 19 22 22 21 18 17 20 18 16 19 20 21 21 19 20 21 21 22 22 23 25 27 26 24 23 22 20 19 22 24 24 26 25 23 23 23 28 35 37 38 39 43 43 35 29 30 30 36 42 41 43 45 46 49 50 49 49 49 48 46 43 41 38 36
22 21 18 17 17 17 13 8 7 7 8 10 10 13 19 20 13 14 18 17 13 16 20 19 21 23 21 20 19 18 19 18 18 19 20 23 25 23 23 23 22 21 19 21 24 28 28 26 23 21 20 19 22 26 25 25 26 24 25 27 34 45 47 48 49 44 36 29 24 26 31 35 33 33 38 40 38 40 41 41 42 41 41 40 38 36 35 36
22 20 17 16 14 12 9 8 8 9 9 9 11 13 17 17 13 14 19 18 17 20 21 21 22 20 18 18 18 19 18 17 19 20 21 23 25 26 25 24 24 23 24 24 24 27 29 26 21 20 21 21 23 26 25 26 29 27 27 27 31 39 38 40 44 36 30 31 27 25 30 33 31 28 31 33 33 32 32 35 36 35 35 35 34 34 34 35
20 18 15 12 10 8 9 10 10 10 9 8 13 17 14 13 15 16 17 20 21 21 21 22 22 19 18 19 20 20 17 16 20 23 23 24 25 26 26 24 24 25 26 25 23 27 27 23 22 21 21 22 23 25 26 27 28 27 27 25 27 33 31 33 37 34 35 41 40 34 29 29 28 27 29 30 28 28 27 29 31 31 31 31 31 31 31 32
16 14 11 8 9 9 9 9 10 11 9 9 15 19 17 16 16 17 19 19 19 20 20 21 20 19 18 19 21 21 17 16 21 24 24 25 26 26 26 26 25 25 26 25 25 26 24 22 24 23 21 23 24 24 27 26 25 25 24 21 23 30 33 30 28 32 37 39 38 34 29 29 29 26 27 28 26 26 26 26 28 28 27 27 27 27 28 27
12 10 8 8 9 9 9 8 10 11 8 11 17 17 18 18 17 21 24 20 19 21 20 17 16 16 17 19 21 21 20 18 19 22 22 24 26 25 26 27 24 25 28 26 24 26 26 24 24 23 20 22 24 24 26 25 24 25 22 19 20 27 34 30 26 35 43 38 34 32 32 34 31 26 26 25 25 26 26 26 27 27 27 27 26 26 26 25
9 9 9 9 9 8 8 7 9 10 7 15 23 21 19 19 17 21 23 21 21 22 21 18 15 16 17 18 19 21 23 21 21 23 21 22 25 24 25 27 25 26 28 26 24 26 28 24 22 22 21 23 25 25 25 26 24 23 21 19 18 23 30 28 27 33 35 38 42 39 36 34 30 29 27 24 25 24 23 26 27 27 28 27 26 26 25 24
9 9 9 10 9 7 8 8 8 8 8 17 24 20 18 20 18 19 21 21 21 21 20 18 17 18 19 19 19 21 24 22 22 23 21 21 24 24 25 26 25 26 26 25 25 26 27 25 21 22 22 23 25 25 26 28 27 25 24 24 25 28 30 27 28 31 33 43 49 44 41 35 28 29 27 23 25 23 22 24 25 26 27 25 25 23 22 22
10 9 8 9 9 8 8 7 7 11 16 20 22 20 19 19 18 19 22 21 20 18 18 19 19 19 18 20 20 21 24 25 24 23 22 23 24 23 26 28 27 29 27 25 26 27 27 27 23 22 23 23 23 24 25 26 28 28 27 27 28 29 30 27 28 33 38 48 55 54 50 35 23 25 25 22 24 22 22 23 23 24 23 22 22 21 21 22
9 10 9 7 9 10 8 8 12 20 24 22 21 22 20 18 17 20 22 22 21 18 18 20 21 20 19 19 20 21 26 28 26 24 24 23 22 22 25 28 30 32 27 24 27 27 27 29 27 25 25 23 22 24 25 25 28 29 27 28 28 27 29 29 30 36 41 46 53 57 51 30 19 23 23 22 23 22 22 22 22 22 20 19 20 20 22 22
9 12 11 7 9 8 8 13 19 23 24 21 20 21 20 18 17 18 18 19 20 18 18 19 21 23 22 20 20 23 26 27 26 25 24 24 24 23 26 28 29 32 28 25 27 27 27 31 31 27 24 22 22 25 26 27 30 30 29 30 31 32 34 33 33 37 41 44 47 54 51 31 20 23 23 22 23 21 21 23 23 21 19 20 21 21 22 23
9 11 10 8 9 7 8 16 21 21 23 21 19 19 20 19 17 16 17 18 18 18 17 19 20 20 20 21 22 24 24 24 25 24 24 27 27 24 25 26 28 30 29 26 26 27 28 32 31 27 25 23 21 24 28 29 30 30 31 33 33 33 35 37 39 39 41 43 45 54 53 32 20 25 25 22 23 21 21 22 23 23 21 21 22 22 23 24
9 9 9 9 8 7 10 16 19 21 21 18 17 18 17 17 17 18 18 18 19 19 19 20 20 18 20 23 24 24 22 21 22 23 24 28 27 23 24 27 27 28 26 25 27 27 26 29 29 30 32 29 26 29 31 30 30 30 33 37 36 35 38 41 41 43 45 41 40 51 50 29 20 27 25 23 26 24 23 23 23 24 23 23 24 24 25 25
9 8 8 8 6 7 12 15 17 22 22 19 18 19 18 17 17 19 19 19 20 20 19 20 20 21 23 24 24 26 24 21 22 24 25 27 27 25 26 27 27 28 26 26 28 27 27 29 29 29 32 32 30 31 31 30 30 31 34 39 39 38 39 38 40 47 48 42 40 46 40 22 18 24 23 25 29 27 25 24 23 25 26 25 26 26 26 28
9 9 9 9 7 8 11 12 13 18 22 21 19 19 19 18 17 19 20 19 19 20 20 20 21 22 23 24 26 28 27 24 25 26 26 28 28 27 28 28 27 28 29 28 28 31 32 33 33 30 29 30 28 26 27 30 31 31 33 38 40 42 40 38 45 49 45 43 43 37 28 22 20 21 22 24 26 26 26 25 24 26 26 26 27 27 28 29
9 12 13 11 8 10 13 13 13 15 18 19 17 17 19 19 18 20 20 19 19 20 21 22 22 21 21 23 25 27 27 26 26 26 28 30 31 29 28 29 30 30 32 31 30 32 32 30 32 33 29 27 27 25 27 30 30 30 32 34 38 44 43 41 44 42 38 42 39 27 26 29 23 20 22 22 22 24 26 25 25 26 26 27 28 28 28 29
11 13 14 11 10 13 15 13 14 17 18 20 21 21 22 21 19 19 18 19 21 21 20 22 21 22 25 25 23 24 25 24 24 27 29 31 34 32 28 29 32 32 32 32 31 31 30 28 31 34 32 29 29 29 29 31 32 32 34 33 34 41 44 41 39 37 36 37 29 22 29 30 21 20 22 21 23 26 26 26 26 27 27 28 28 28 29 29
12 12 11 11 12 15 16 14 14 17 19 22 23 22 24 23 19 20 21 21 21 21 20 19 19 23 30 29 24 25 25 21 20 25 30 32 33 34 30 28 30 31 31 32 32 30 29 31 35 37 34 29 28 30 31 33 35 34 34 33 33 36 40 39 38 36 35 31 25 24 29 27 21 22 24 24 26 28 28 28 28 28 28 28 29 29 29 29
9 10 10 12 14 15 17 14 14 17 19 21 20 20 25 25 21 21 24 21 19 20 20 19 19 24 32 32 27 25 25 22 20 22 28 32 31 33 33 29 28 31 32 34 33 29 26 32 39 40 35 28 27 30 32 34 37 35 30 29 30 31 33 35 36 35 34 32 29 28 32 30 26 26 28 30 31 31 31 30 29 29 28 28 30 30 30 30
8 8 8 11 15 17 16 14 16 19 19 19 20 20 23 25 21 21 24 21 18 19 20 19 22 27 32 32 29 26 24 24 22 22 26 28 28 29 30 29 29 32 35 36 35 31 28 33 38 39 36 31 28 31 33 33 35 33 27 24 26 27 30 33 34 34 33 32 30 32 34 31 27 29 32 33 32 32 33 31 31 30 30 31 33 32 32 33
8 9 9 11 15 17 17 16 18 19 16 16 21 22 21 21 20 21 21 20 21 21 19 20 24 27 29 30 30 27 23 21 22 22 24 25 27 28 29 29 30 32 38 40 39 37 36 35 36 37 38 35 31 32 34 34 34 31 25 23 24 27 31 33 32 32 31 30 31 33 31 28 29 32 33 32 32 34 33 33 33 33 34 36 36 36 36 36